Regional Weather Roundup
Issued by NWS Sterling, VA

Home | Current Version | Previous Version | Graphics & Text | Print | Product List | Glossary On
Versions: 1 2 3 4 5 6 7 8 9 10 11 12 13 14 15 16 17 18 19 20 21 22 23 24 25 26 27 28 29 30 31 32 33 34 35 36 37 38 39 40 41 42 43 44 45 46 47 48 49 50
000
ASUS41 KLWX 272310
RWRLWX

REGIONAL WEATHER ROUNDUP
NATIONAL WEATHER SERVICE BALTIMORE MD/WASHINGTON DC
600 PM EST THU NOV 27 2014

Note: "FAIR" indicates few or no clouds below 12,000 feet
with no significant weather and/or obstructions to visibility.
 TC=TEMPERATURE CELSIUS

 * =Non NWS site. Station does not report precipitation (e.g. rain,
    snow, etc.), thunder, or fog.

DCZ001-MDZ009-015-VAZ040>042-051-053>054-280000-
WASHINGTON METRO

CITY           SKY/WX    TMP DP  RH WIND       PRES   REMARKS
WASHINGTON NAT MOCLDY    42  28  57 W8        30.12R
DULLES         MOCLDY    36  28  73 W9        30.11R WCI  29
ANDREWS AFB    CLOUDY    40  28  60 NW7       30.10R
FT BELVOIR     CLOUDY    40  29  63 NW8       30.13R
QUANTICO       CLOUDY    41  30  65 NW10      30.14R
COLLEGE PARK*  MOCLDY    39  30  70 NW3       30.11R
LEESBURG*      PTCLDY    36  32  87 NW7       30.12R
MANASSAS*      CLOUDY    39  34  81 W9        30.12
GAITHERSBURG*  CLEAR     34  27  75 NW5       30.13R

$$

MDZ006>007-011-014-280000-
BALTIMORE METRO

CITY           SKY/WX    TMP DP  RH WIND       PRES   REMARKS
BWI AIRPORT    MOCLDY    38  30  73 W5        30.09R
MD SCIENCE CTR   N/A     39  28  64 MISG      30.09R
MARTIN STATE   MOCLDY    37  30  75 CALM      30.11R
ANNAPOLIS      PTCLDY    41  29  62 NW8       30.10R
FORT MEADE*    PTCLDY    34  30  86 W5        30.12R

$$

MDZ012-015-019>023-280000-
MARYLAND EASTERN SHORE

CITY           SKY/WX    TMP DP  RH WIND       PRES   REMARKS
OCEAN CITY     CLEAR     35  31  85 CALM      30.07R
SALISBURY      CLEAR     39  31  72 CALM      30.07R
BAY BRIDGE AP*   N/A     41  28  60 NW8       30.10R
CAMBRIDGE*     MOCLDY    36  32  87 CALM      30.08R
EASTON*        MOCLDY    39  32  75 N3        30.12R

$$

MDZ017>025-280000-
SOUTHERN MARYLAND

CITY           SKY/WX    TMP DP  RH WIND       PRES   REMARKS
PATUXENT RIVER CLEAR     34  31  88 W5        30.09R
ST INIGOES     CLEAR     35  32  88 NW3       30.09R
LEONARDTOWN*   CLEAR     37  32  81 NW5       30.11R

$$

MDZ003>005-280000-
NORTH CENTRAL MARYLAND

CITY           SKY/WX    TMP DP  RH WIND       PRES   REMARKS
FREDERICK*     CLOUDY    37  28  70 W7        30.14R
HAGERSTOWN APT CLOUDY    37  27  67 W9        30.09R
WESTMINSTER*   CLOUDY    36  30  80 W3        30.07R

$$

MDZ501>502-280000-
WESTERN MARYLAND

CITY           SKY/WX    TMP DP  RH WIND       PRES   REMARKS
OAKLAND*       CLOUDY    27 N/A N/A W10G16    30.03R FOG     WCI  17
CUMBERLAND*    PTCLDY    36  28  75 W6        30.15S

$$

VAZ025>031-280000-
SHENANDOAH VALLEY

CITY           SKY/WX    TMP DP  RH WIND       PRES   REMARKS
WINCHESTER*    PTCLDY    37  27  65 W8G21     30.11R
FRONT ROYAL*   CLOUDY    36  28  75 W3        30.11R
LURAY*         CLOUDY    37  30  75 W5        30.12R
NEW MARKET*    MOCLDY    36  24  62 CALM      30.12R
STAUNTON*      CLEAR     35  21  57 W8        30.15R WCI  28
WAYNESBORO*    CLOUDY    34  24  68 NW8       30.12R WCI  27

$$

WVZ021-048>050-054>055-280000-
EASTERN WEST VIRGINIA PANHANDLE

CITY           SKY/WX    TMP DP  RH WIND       PRES   REMARKS
MARTINSBURG    CLOUDY    39  26  59 W10       30.11R
PETERSBURG*    CLOUDY    34  26  71 W3        30.14S

$$

VAZ036>039-050-280000-
CENTRAL FOOTHILLS

CITY           SKY/WX    TMP DP  RH WIND       PRES   REMARKS
CHARLOTTESVILL CLOUDY    40  23  50 NW10      30.13R
CULPEPER*      MOCLDY    41  28  60 NW5       30.13R
ORANGE*        CLOUDY    41  30  65 W7        30.14R
GORDONSVILLE*  CLOUDY    41  26  54 N3        30.13R
WARRENTON*     MOCLDY    38  35  89 NW5       30.12R

$$

VAZ055>057-280000-
NORTH AND CENTRAL PIEDMONT

CITY           SKY/WX    TMP DP  RH WIND       PRES   REMARKS
FREDERICKSBRG* CLOUDY    42  32  67 NW8       30.12R
STAFFORD*      PTCLDY    38  30  74 CALM      30.17R

$$

NCZ024-NYZ072-PAZ021-071-VAZ022-071-280000-
OTHER REGIONAL OBSERVATIONS

CITY           SKY/WX    TMP DP  RH WIND       PRES   REMARKS
NEW YORK CITY  CLOUDY    37  27  67 VRB7      30.05R
PHILADELPHIA   PTCLDY    38  27  64 NW7       30.08R
PITTSBURGH     MOCLDY    30  24  78 W9        30.15R WCI  22
ROANOKE        CLOUDY    36  22  56 NW9       30.19R WCI  29
RICHMOND       MOCLDY    40  36  86 CALM      30.11R
RALEIGH        PTCLDY    43  33  68 NW6       30.15R

$$

ANZ530>537-280000-
MARINE OBSERVATIONS

STATION/POSITION TIME  TEMP    WIND        PRES
                       AIR SEA DIR/SP/G
                 (UTC) (F)     (DEG/KT/KT) (MB)
THOMAS PT LIGHT  2300   42 47  320/  9/ 11 1020.3R
BALT KEY BRIDGE  2300   40     310/  9/ 11 1018.8R
COVE POINT       2300   42      20/  5/  7 1018.7R
LEWISETTA        2300   40 48  300/  5/  5 1018.8R
SOLOMONS ISLAND  2300      49                N/A
PINEY POINT      2300          340/ 19/ 20   N/A

$$




USA.gov is the U.S. government's official web portal to all federal, state and local government web resources and services.